When you browse on this site, cookies collect data to enhance your experience and personalize the content and advertising you see.
Visit our Privacy Policy to learn more. By continuing to use the site, you agree to this use of cookies and data.
  • In United Kingdom
  • List of Countries
  • For 7 days
  • Water Temperature
  • Weather Map
  • Weather Widgets
  • user-avatar
    Login

    Hourly Weather Varpalota

    Today, 18 September, Wednesday

    Time Temperature Precipitation Wind Pressure Humidity
    00:00 +16°C° 0 mm 6 mps 746 mmHg 66%
    01:00 +14°C° 0 mm 5 mps 746 mmHg 71%
    02:00 +13°C° 0 mm 5 mps 746 mmHg 70%
    03:00 +13°C° 0 mm 5 mps 746 mmHg 69%
    04:00 +11°C° 0 mm 6 mps 747 mmHg 68%
    05:00 +11°C° 0 mm 7 mps 748 mmHg 64%
    06:00 +11°C° 0 mm 7 mps 749 mmHg 61%
    07:00 +11°C° 0 mm 8 mps 749 mmHg 57%
    08:00 +12°C° 0 mm 8 mps 750 mmHg 51%
    09:00 +14°C° 0 mm 7 mps 750 mmHg 45%
    10:00 +15°C° 0 mm 7 mps 751 mmHg 39%
    11:00 +16°C° 0 mm 6 mps 751 mmHg 35%
    12:00 +17°C° 0 mm 5 mps 751 mmHg 31%
    13:00 +19°C° 0 mm 4 mps 751 mmHg 27%
    14:00 +19°C° 0 mm 4 mps 750 mmHg 27%
    15:00 +19°C° 0 mm 4 mps 750 mmHg 26%
    16:00 +18°C° 0 mm 3 mps 750 mmHg 26%
    17:00 +17°C° 0 mm 3 mps 750 mmHg 30%
    18:00 +15°C° 0 mm 2 mps 750 mmHg 34%
    19:00 +13°C° 0 mm 1 mps 750 mmHg 39%
    20:00 +12°C° 0 mm 1 mps 750 mmHg 41%
    21:00 +12°C° 0 mm 1 mps 751 mmHg 43%
    22:00 +11°C° 0 mm 1 mps 751 mmHg 45%
    23:00 +11°C° 0 mm 1 mps 751 mmHg 49%

    Tomorrow, 19 September, Thursday

    Time Temperature Precipitation Wind Pressure Humidity
    00:00 +10°C° 0 mm 1 mps 751 mmHg 53%
    01:00 +10°C° 0 mm 1 mps 751 mmHg 57%
    02:00 +9°C° 0 mm 2 mps 751 mmHg 61%
    03:00 +8°C° 0 mm 2 mps 751 mmHg 65%
    04:00 +8°C° 0 mm 2 mps 751 mmHg 69%
    05:00 +9°C° 0 mm 3 mps 751 mmHg 67%
    06:00 +9°C° 0 mm 3 mps 752 mmHg 66%
    07:00 +10°C° 0 mm 3 mps 752 mmHg 64%
    08:00 +11°C° 0 mm 4 mps 752 mmHg 57%
    09:00 +13°C° 0 mm 5 mps 753 mmHg 49%
    10:00 +14°C° 0 mm 5 mps 753 mmHg 42%
    11:00 +15°C° 0 mm 5 mps 753 mmHg 39%
    12:00 +16°C° 0 mm 5 mps 752 mmHg 36%
    13:00 +17°C° 0 mm 5 mps 752 mmHg 33%
    14:00 +16°C° 0 mm 5 mps 752 mmHg 33%
    15:00 +16°C° 0 mm 5 mps 752 mmHg 34%
    16:00 +16°C° 0 mm 5 mps 752 mmHg 35%
    17:00 +14°C° 0 mm 4 mps 752 mmHg 41%
    18:00 +12°C° 0 mm 4 mps 752 mmHg 47%
    19:00 +10°C° 0 mm 3 mps 753 mmHg 54%
    20:00 +10°C° 0 mm 3 mps 753 mmHg 56%
    21:00 +9°C° 0 mm 2 mps 753 mmHg 58%
    22:00 +8°C° 0 mm 2 mps 754 mmHg 60%
    23:00 +8°C° 0 mm 2 mps 754 mmHg 64%

    Day after tomorrow, 20 September, Friday

    Time Temperature Precipitation Wind Pressure Humidity
    00:00 +7°C° 0 mm 2 mps 754 mmHg 67%
    01:00 +7°C° 0 mm 2 mps 754 mmHg 70%
    02:00 +7°C° 0 mm 2 mps 754 mmHg 73%
    03:00 +6°C° 0 mm 2 mps 753 mmHg 76%
    04:00 +6°C° 0 mm 2 mps 753 mmHg 78%
    05:00 +7°C° 0 mm 2 mps 754 mmHg 76%
    06:00 +7°C° 0 mm 2 mps 754 mmHg 73%
    07:00 +8°C° 0 mm 2 mps 754 mmHg 70%
    08:00 +10°C° 0 mm 2 mps 754 mmHg 62%
    09:00 +14°C° 0 mm 2 mps 754 mmHg 53%
    10:00 +16°C° 0 mm 2 mps 755 mmHg 45%
    11:00 +17°C° 0 mm 2 mps 754 mmHg 40%
    12:00 +18°C° 0 mm 2 mps 754 mmHg 36%
    13:00 +19°C° 0 mm 2 mps 753 mmHg 32%
    14:00 +20°C° 0 mm 1 mps 753 mmHg 31%
    15:00 +20°C° 0 mm 1 mps 753 mmHg 30%
    16:00 +20°C° 0 mm 1 mps 753 mmHg 29%
    17:00 +18°C° 0 mm 1 mps 753 mmHg 34%
    18:00 +15°C° 0 mm 1 mps 753 mmHg 39%
    19:00 +13°C° 0 mm 1 mps 753 mmHg 43%
    20:00 +11°C° 0 mm 0 mps 753 mmHg 44%
    21:00 +11°C° 0 mm 0 mps 753 mmHg 46%
    22:00 +10°C° 0 mm 0 mps 753 mmHg 47%
    23:00 +10°C° 0 mm 0 mps 753 mmHg 48%

    21 September, Saturday

    Time Temperature Precipitation Wind Pressure Humidity
    00:00 +10°C° 0 mm 0 mps 753 mmHg 49%
    01:00 +9°C° 0 mm 0 mps 753 mmHg 50%
    02:00 +9°C° 0 mm 0 mps 753 mmHg 51%
    03:00 +10°C° 0 mm 1 mps 753 mmHg 52%
    04:00 +9°C° 0 mm 1 mps 753 mmHg 53%
    05:00 +10°C° 0 mm 1 mps 753 mmHg 52%
    06:00 +11°C° 0 mm 1 mps 753 mmHg 51%
    07:00 +12°C° 0 mm 2 mps 753 mmHg 50%
    08:00 +14°C° 0 mm 2 mps 753 mmHg 44%
    09:00 +16°C° 0 mm 3 mps 753 mmHg 39%
    10:00 +18°C° 0 mm 3 mps 754 mmHg 34%
    11:00 +19°C° 0 mm 4 mps 753 mmHg 31%
    12:00 +20°C° 0 mm 4 mps 753 mmHg 29%
    13:00 +21°C° 0 mm 4 mps 752 mmHg 27%
    14:00 +21°C° 0 mm 4 mps 752 mmHg 27%
    15:00 +21°C° 0 mm 4 mps 751 mmHg 27%
    16:00 +21°C° 0 mm 4 mps 751 mmHg 28%
    17:00 +19°C° 0 mm 3 mps 751 mmHg 32%
    18:00 +17°C° 0 mm 3 mps 751 mmHg 36%
    19:00 +14°C° 0 mm 3 mps 751 mmHg 40%
    20:00 +14°C° 0 mm 2 mps 751 mmHg 42%
    21:00 +13°C° 0 mm 2 mps 751 mmHg 43%
    22:00 +12°C° 0 mm 2 mps 750 mmHg 44%
    23:00 +12°C° 0 mm 2 mps 750 mmHg 44%

    22 September, Sunday

    Time Temperature Precipitation Wind Pressure Humidity
    00:00 +12°C° 0 mm 2 mps 750 mmHg 44%
    01:00 +10°C° 0 mm 2 mps 750 mmHg 44%
    02:00 +10°C° 0 mm 2 mps 749 mmHg 44%
    03:00 +9°C° 0 mm 3 mps 749 mmHg 44%
    04:00 +9°C° 0 mm 3 mps 749 mmHg 44%
    05:00 +10°C° 0 mm 3 mps 748 mmHg 43%
    06:00 +10°C° 0 mm 3 mps 748 mmHg 43%
    07:00 +11°C° 0 mm 3 mps 748 mmHg 42%
    08:00 +14°C° 0 mm 4 mps 748 mmHg 38%
    09:00 +17°C° 0 mm 4 mps 748 mmHg 34%
    10:00 +20°C° 0 mm 5 mps 748 mmHg 30%
    11:00 +22°C° 0 mm 5 mps 747 mmHg 30%
    12:00 +23°C° 0 mm 5 mps 747 mmHg 31%
    13:00 +26°C° 0 mm 5 mps 746 mmHg 32%
    14:00 +26°C° 0 mm 5 mps 745 mmHg 37%
    15:00 +25°C° 0 mm 5 mps 745 mmHg 42%
    16:00 +25°C° 0 mm 4 mps 744 mmHg 47%
    17:00 +23°C° 0 mm 4 mps 744 mmHg 53%
    18:00 +21°C° 0 mm 3 mps 744 mmHg 59%
    19:00 +20°C° 0 mm 3 mps 744 mmHg 66%
    20:00 +19°C° 0 mm 2 mps 744 mmHg 71%
    21:00 +18°C° 0 mm 2 mps 744 mmHg 76%
    22:00 +17°C° 0 mm 2 mps 744 mmHg 82%
    23:00 +17°C° 0 mm 2 mps 744 mmHg 84%

    23 September, Monday

    Time Temperature Precipitation Wind Pressure Humidity
    00:00 +16°C° 0 mm 2 mps 743 mmHg 86%
    01:00 +16°C° 0 mm 1 mps 743 mmHg 89%
    02:00 +16°C° 0 mm 1 mps 743 mmHg 89%
    03:00 +15°C° 0 mm 1 mps 743 mmHg 90%
    04:00 +15°C° 0 mm 1 mps 743 mmHg 90%
    05:00 +16°C° 0 mm 1 mps 743 mmHg 88%
    06:00 +16°C° 0 mm 1 mps 743 mmHg 86%
    07:00 +18°C° 0 mm 1 mps 743 mmHg 84%
    08:00 +20°C° 0 mm 1 mps 743 mmHg 76%
    09:00 +22°C° 0 mm 1 mps 743 mmHg 69%
    10:00 +23°C° 0 mm 1 mps 743 mmHg 61%
    11:00 +24°C° 0 mm 2 mps 743 mmHg 58%
    12:00 +24°C° 0 mm 3 mps 743 mmHg 55%
    13:00 +23°C° 0 mm 4 mps 742 mmHg 52%
    14:00 +22°C° 0.1 mm 5 mps 743 mmHg 58%
    15:00 +21°C° 0.1 mm 6 mps 743 mmHg 64%
    16:00 +18°C° 0.1 mm 7 mps 743 mmHg 69%
    17:00 +17°C° 0.4 mm 7 mps 743 mmHg 74%
    18:00 +17°C° 0.4 mm 8 mps 743 mmHg 78%
    19:00 +16°C° 0.4 mm 8 mps 743 mmHg 82%
    20:00 +16°C° 0.2 mm 8 mps 744 mmHg 83%
    21:00 +15°C° 0.2 mm 9 mps 744 mmHg 84%
    22:00 +15°C° 0.2 mm 9 mps 744 mmHg 84%
    23:00 +15°C° 0.3 mm 9 mps 744 mmHg 85%
    Show more